Temp
40 45 47 49 53 54 52 53 46 49 51 56 58 59 58 58 55 56 56 57 59 58 57 56 56 58 59 59 59 59 59 59 59 60 60 61 61 61 62 62 62 62 62 62
36 48 49 47 51 55 56 55 54 53 52 60 61 59 58 59 58 58 58 60 61 60 59 57 59 59 60 59 59 59 59 60 59 60 61 61 61 61 61 61 62 62 62 62
30 41 42 41 50 51 54 59 56 50 60 57 57 60 59 57 61 61 61 62 62 62 61 60 61 61 59 59 59 59 60 60 61 61 61 61 61 60 59 59 60 61 61 61
29 35 32 48 57 59 54 56 59 57 59 61 63 64 63 65 64 62 63 64 64 64 62 61 62 61 60 59 60 60 60 61 61 62 60 60 59 58 57 57 58 59 59 60
28 30 41 49 47 47 48 52 58 59 63 62 63 61 60 65 66 66 66 67 67 66 64 60 61 62 61 59 60 61 60 61 61 62 60 59 58 57 57 57 57 57 59 59
31 29 31 40 49 52 49 46 49 50 57 59 60 56 61 63 66 65 65 66 66 65 63 62 62 61 61 59 59 60 62 62 62 62 60 59 57 57 57 57 57 59 58 59
31 28 36 46 49 52 44 40 48 50 51 51 59 67 71 66 66 68 68 66 66 65 63 63 61 62 61 60 60 63 64 63 61 61 60 59 57 57 56 56 57 56 56 57
32 29 31 48 48 39 43 47 49 50 51 51 55 64 64 66 68 65 66 65 67 65 63 63 63 64 61 60 64 63 64 63 61 59 63 60 58 57 56 56 55 55 55 55
36 38 48 49 50 52 49 48 50 50 53 53 54 56 63 64 64 66 68 69 69 67 63 62 63 66 62 62 62 63 63 61 59 59 60 59 58 56 56 55 56 55 57 57
39 47 47 50 54 55 53 50 53 54 54 54 54 57 63 63 65 67 69 68 69 66 63 61 64 66 67 63 65 64 61 59 58 59 57 58 59 59 58 56 55 56 57 57
39 45 47 53 52 51 52 53 54 55 56 56 56 56 63 64 65 68 69 68 68 67 65 64 65 66 65 65 65 63 62 60 59 60 59 58 59 59 60 59 58 58 58 59
37 45 44 46 52 53 50 51 54 54 54 58 57 57 63 64 68 68 69 68 68 67 66 65 67 67 65 67 66 63 61 60 60 60 59 60 59 56 44 48 47 46 47 55
43 49 48 50 52 56 53 53 54 54 56 56 57 57 60 62 65 65 69 69 69 68 68 67 67 68 66 68 67 64 62 61 60 59 60 59 59 59 57 53 44 44 43 45
50 49 47 51 48 53 56 56 55 57 58 58 57 58 58 61 64 66 68 70 71 70 69 68 68 68 68 69 68 65 63 53 61 62 62 62 61 61 63 61 59 58 45 47
48 48 47 50 51 52 57 56 53 55 56 57 58 58 59 58 62 67 69 69 68 70 70 70 69 68 70 70 68 66 65 63 64 63 63 61 62 62 62 62 62 61 53 45
46 46 47 47 52 51 55 55 52 54 57 57 56 57 58 59 59 64 67 69 67 66 68 69 70 71 71 70 68 67 66 56 59 63 62 61 62 62 61 61 60 61 59 61
40 41 44 47 51 52 54 54 56 54 56 57 56 57 58 58 59 59 61 67 70 69 69 70 70 72 72 71 68 69 68 61 54 63 62 63 62 62 61 62 61 61 61 60
48 47 46 46 46 48 51 55 57 57 55 58 58 58 57 57 56 57 60 63 65 65 65 66 67 70 72 71 70 70 68 64 63 65 64 63 63 63 62 62 62 62 62 58
50 47 48 48 49 50 51 54 57 58 57 59 57 57 56 57 57 59 59 61 62 63 63 65 53 61 69 67 66 71 67 64 65 65 64 55 58 63 63 62 63 63 63 60
49 49 49 50 51 51 52 54 57 56 58 58 57 57 56 56 57 58 59 58 58 59 59 61 61 67 68 63 55 72 68 65 65 65 63 62 62 62 62 54 63 63 62 61
48 49 48 49 51 54 55 57 58 56 57 58 56 57 56 56 57 57 56 57 58 55 55 52 59 64 65 58 61 70 68 64 64 63 64 62 62 62 61 62 62 63 62 62
48 46 47 48 49 52 55 57 57 56 57 56 57 57 56 56 56 56 55 55 55 39 53 58 56 41 48 42 69 67 67 64 64 64 63 63 63 61 61 60 60 62 62 62
48 47 46 47 48 50 52 54 56 56 56 56 56 55 54 54 55 55 54 54 53 44 56 56 43 40 39 51 63 66 65 65 63 63 64 63 63 63 63 61 62 62 61 60
48 49 49 48 47 48 49 51 53 56 57 56 56 56 55 54 54 54 55 45 38 45 50 46 45 39 43 55 57 64 64 63 63 63 63 51 64 63 62 60 59 60 60 53
48 48 50 50 48 47 48 49 50 52 53 53 54 55 55 55 52 55 56 53 41 50 56 44 41 40 53 56 57 58 59 59 59 59 59 59 59 59 59 58 59 58 57 57
47 47 48 49 49 49 49 50 50 52 50 50 52 52 54 55 55 54 54 49 54 47 53 52 50 52 53 54 56 56 56 53 55 54 53 53 53 53 53 53 53 53 54 53
48 44 48 47 48 49 49 47 47 48 48 49 49 51 52 54 53 52 46 53 52 51 50 49 49 47 50 51 53 53 52 51 46 53 52 51 50 50 49 49 48 48 49 49
MSLP
1002.52 1000.88 999.94 998.70 997.87 997.92 997.97 998.56 998.80 998.24 997.97 997.34 997.09 997.20 997.67 998.35 999.92 1000.95 1001.68 1002.19 1002.74 1003.40 1004.08 1004.78 1005.32 1005.74 1006.22 1006.59 1006.96 1007.38 1007.81 1008.26 1008.48 1008.47 1008.73 1008.86 1008.75 1008.72 1008.77 1008.88 1009.18 1009.46 1009.62 1009.92
1003.03 1000.83 1000.14 999.05 997.99 997.31 997.39 997.57 997.82 997.61 997.09 996.45 996.39 997.12 997.67 997.97 999.18 1000.14 1000.87 1001.41 1002.03 1002.76 1003.49 1004.27 1004.82 1005.36 1005.89 1006.37 1006.83 1007.28 1007.73 1008.17 1008.45 1008.55 1008.77 1009.01 1009.04 1009.04 1009.12 1009.27 1009.46 1009.57 1009.91 1010.14
1004.23 1002.23 1000.51 998.67 996.50 997.10 997.16 996.65 997.03 997.00 995.87 996.30 996.56 996.76 997.20 997.50 998.05 998.73 999.70 1000.25 1000.98 1001.76 1002.57 1003.52 1004.14 1004.72 1005.47 1005.99 1006.60 1007.20 1007.57 1008.02 1008.42 1008.63 1008.83 1009.16 1009.29 1009.40 1009.51 1009.65 1009.73 1009.94 1010.06 1010.39
1004.98 1003.01 1000.66 997.27 995.65 996.24 996.86 996.65 996.78 996.39 996.01 995.91 995.78 995.44 995.64 995.95 996.57 997.72 998.70 999.57 1000.28 1001.15 1002.07 1002.90 1003.56 1004.24 1004.96 1005.73 1006.42 1007.02 1007.51 1007.91 1008.40 1008.69 1008.89 1009.31 1009.62 1009.83 1009.97 1010.10 1010.26 1010.36 1010.45 1010.67
1005.29 1003.51 1000.29 997.67 997.58 997.90 997.32 997.11 996.98 996.84 996.22 995.66 995.21 995.59 995.64 995.50 995.33 995.84 996.78 997.78 998.71 999.90 1001.04 1002.22 1003.03 1003.75 1004.67 1005.67 1006.26 1006.83 1007.32 1007.76 1008.25 1008.63 1008.90 1009.24 1009.76 1010.11 1010.32 1010.34 1010.63 1010.71 1010.89 1011.02
1005.43 1004.24 1001.41 999.77 999.01 998.33 998.26 998.57 998.52 998.18 997.21 996.05 995.76 995.76 994.77 994.33 994.85 995.78 996.80 997.58 998.52 999.55 1000.76 1001.70 1002.60 1003.35 1004.33 1005.28 1005.95 1006.48 1006.90 1007.35 1007.88 1008.40 1008.81 1009.23 1009.63 1010.05 1010.47 1010.65 1010.85 1011.05 1011.31 1011.59
1005.59 1004.54 1002.04 1000.98 999.00 997.99 999.07 1000.60 999.62 999.19 998.38 997.61 995.66 993.94 992.70 993.06 994.02 994.73 995.48 996.72 997.91 999.12 999.98 1000.96 1002.05 1002.94 1003.94 1004.73 1005.30 1005.66 1006.41 1007.07 1007.73 1008.23 1008.66 1009.11 1009.64 1010.09 1010.59 1010.93 1011.17 1011.51 1011.77 1012.07
1005.63 1004.47 1002.76 1001.22 999.84 1000.60 1001.75 1000.82 1000.36 999.55 998.92 997.94 996.42 994.44 993.17 992.85 993.33 994.39 995.27 996.53 997.62 998.55 999.65 1000.50 1001.46 1002.36 1003.34 1004.06 1004.43 1005.35 1006.08 1006.82 1007.49 1008.12 1008.57 1009.18 1009.62 1010.26 1010.76 1011.08 1011.53 1011.93 1012.23 1012.58
1005.54 1003.82 1002.46 1002.18 1001.94 1001.54 1001.42 1001.20 1000.27 999.64 998.52 997.77 996.44 994.91 993.79 992.85 993.15 993.80 994.53 995.45 996.46 997.61 999.01 999.97 1000.78 1001.51 1002.36 1003.10 1004.10 1005.02 1005.86 1006.53 1007.21 1007.93 1008.50 1009.08 1009.61 1010.23 1010.93 1011.30 1011.71 1012.30 1012.50 1012.84
1005.05 1003.05 1002.86 1001.83 1001.44 1001.40 1001.19 1000.63 999.99 999.16 998.10 997.07 995.86 994.69 993.56 993.26 992.75 993.46 994.17 994.97 995.97 997.17 998.36 999.20 999.92 1000.56 1001.10 1002.40 1003.43 1004.51 1005.49 1006.30 1006.98 1007.74 1008.45 1009.05 1009.55 1009.98 1010.60 1011.26 1011.79 1012.17 1012.60 1012.94
1004.73 1003.48 1002.40 1001.42 1001.39 1001.29 1000.55 999.94 999.09 998.32 997.48 996.35 995.41 993.92 993.17 992.75 992.90 992.78 993.42 994.40 995.29 996.18 997.14 997.99 999.02 999.88 1000.72 1001.75 1002.77 1003.97 1005.00 1005.90 1006.72 1007.40 1008.04 1008.84 1009.41 1009.84 1010.23 1010.59 1010.86 1011.56 1011.98 1012.37
1004.80 1003.94 1003.65 1002.54 1001.77 1001.28 1000.62 999.84 999.00 998.42 996.96 995.74 995.08 993.65 992.53 992.10 992.00 992.62 993.01 993.88 994.77 995.58 996.58 997.52 998.38 999.12 1000.02 1000.93 1001.91 1003.07 1004.47 1005.43 1006.16 1006.89 1007.68 1008.29 1009.05 1009.95 1010.23 1010.37 1010.74 1011.02 1011.24 1011.76
1004.67 1004.05 1003.47 1002.68 1002.03 1001.29 1000.74 999.84 998.95 998.02 996.99 996.03 994.74 993.94 992.35 991.93 991.87 992.01 992.92 992.90 993.69 994.34 995.16 996.40 997.49 998.38 999.25 1000.02 1001.07 1002.20 1003.19 1004.47 1005.44 1006.18 1006.92 1007.67 1008.40 1009.03 1009.80 1010.55 1010.63 1010.98 1011.33 1011.52
1004.29 1004.06 1002.92 1002.43 1001.92 1001.18 1000.55 999.74 999.01 998.01 996.90 996.07 995.37 994.14 992.86 992.17 991.90 991.73 992.15 992.31 992.73 993.78 994.84 995.70 996.62 997.37 998.19 999.30 1000.23 1001.34 1002.42 1003.40 1004.46 1005.38 1006.07 1006.77 1007.47 1008.10 1008.66 1009.36 1010.12 1010.77 1011.06 1011.35
1004.17 1003.95 1003.33 1002.76 1002.03 1000.82 1000.63 999.96 999.30 998.20 997.07 995.96 995.05 993.99 993.42 992.81 992.11 991.23 991.65 992.46 993.21 993.88 994.39 995.04 995.89 996.85 997.64 998.45 999.48 1000.57 1001.69 1002.78 1003.55 1004.44 1005.25 1005.90 1006.60 1007.23 1007.83 1008.37 1008.92 1009.56 1010.54 1011.16
1004.15 1003.62 1003.26 1002.81 1002.24 1001.43 1000.77 999.73 999.18 998.03 997.00 996.21 995.48 994.33 993.76 993.33 992.84 991.84 991.52 992.01 992.99 993.42 993.86 994.73 994.99 995.72 996.82 997.68 998.68 999.81 1000.74 1001.59 1002.61 1003.56 1004.51 1005.31 1005.90 1006.43 1007.02 1007.54 1008.11 1008.63 1009.36 1009.81
1003.95 1003.39 1002.97 1002.18 1001.86 1000.77 999.67 999.49 999.01 998.09 997.43 996.88 996.31 995.34 994.64 994.17 993.47 992.66 992.00 991.88 992.13 992.81 993.20 993.38 993.98 995.05 995.98 996.89 997.54 998.55 999.65 1000.87 1001.73 1002.73 1003.51 1004.11 1004.83 1005.40 1005.99 1006.55 1007.02 1007.53 1007.90 1008.57
1002.71 1002.84 1002.64 1002.66 1002.11 1000.85 1000.22 999.39 998.77 998.20 997.81 997.24 996.77 996.00 995.33 994.99 994.31 993.85 992.79 992.11 992.43 992.86 993.16 993.47 993.93 995.02 995.60 996.31 997.15 997.93 998.73 999.86 1000.85 1001.66 1002.44 1003.17 1003.65 1004.26 1004.86 1005.39 1005.92 1006.48 1006.98 1007.86
1001.46 1001.44 1001.60 1001.35 1001.16 1000.75 1000.05 999.09 998.26 997.85 997.83 997.46 997.18 996.29 995.82 995.48 994.93 994.29 993.69 992.88 992.91 993.27 993.44 993.31 993.69 994.42 995.36 995.95 996.49 997.23 998.19 999.17 1000.02 1000.72 1001.41 1002.11 1003.01 1003.46 1003.87 1004.26 1004.71 1005.29 1005.97 1006.87
1001.28 1000.92 1000.84 1000.90 1000.24 999.86 999.26 998.39 997.97 997.96 997.66 997.26 997.01 996.35 995.99 995.59 995.13 994.54 994.39 994.24 993.88 993.86 993.91 993.86 993.65 993.69 994.34 995.48 996.39 996.52 997.32 998.17 998.97 999.60 1000.59 1001.20 1001.78 1002.36 1002.88 1003.34 1003.74 1004.16 1004.64 1005.18
1000.82 1000.45 1000.07 999.85 999.37 998.42 998.20 997.86 997.77 997.73 997.31 997.04 996.99 996.19 995.96 995.69 995.35 994.93 994.81 994.94 994.59 994.43 994.56 993.93 994.64 993.89 994.17 994.71 995.92 996.60 996.96 997.52 998.26 998.82 999.52 1000.17 1000.72 1001.19 1001.69 1002.07 1002.69 1003.36 1003.85 1004.01
1000.04 999.86 999.61 999.44 999.08 998.04 997.54 997.30 997.44 997.25 996.82 996.93 996.72 996.24 996.00 995.82 995.38 995.41 995.38 995.22 995.03 994.76 994.68 994.76 994.28 995.03 995.20 995.09 995.49 995.83 996.36 996.77 997.62 998.32 998.75 999.48 999.84 1000.33 1000.67 1001.23 1001.59 1001.94 1002.49 1002.91
1000.03 1000.03 999.99 999.64 999.24 998.84 997.97 997.40 997.24 996.63 996.69 996.70 996.60 996.31 996.12 996.11 995.84 995.55 995.72 995.71 995.42 994.72 994.55 994.71 995.56 991.74 994.20 995.99 996.13 995.65 995.77 996.02 996.71 997.68 998.00 998.48 998.92 999.26 999.55 999.94 1000.23 1000.84 1001.63 1001.98
1000.75 1000.19 999.84 999.49 998.93 998.35 998.15 997.68 996.73 996.07 996.00 995.73 995.86 995.78 996.00 996.31 996.01 995.57 995.39 995.34 994.57 993.86 994.19 994.54 994.31 993.88 992.99 994.17 996.40 996.73 995.89 995.17 995.76 996.92 997.38 997.81 998.36 998.98 999.12 999.25 999.73 999.81 1000.27 1000.90
1000.88 1000.66 1000.18 999.66 999.18 998.66 998.04 997.53 996.99 996.35 995.71 995.48 995.84 995.68 995.74 995.93 996.35 995.57 994.94 994.80 994.40 993.70 993.66 993.96 994.45 994.83 994.99 996.06 995.61 997.16 996.76 995.05 995.90 996.48 997.02 997.43 997.55 998.20 998.87 999.05 999.15 999.53 999.85 1000.13
1001.81 1001.26 1000.62 1000.22 1000.06 999.52 999.09 998.50 997.76 996.93 996.62 996.25 995.93 995.75 995.58 995.59 995.26 995.84 995.77 995.22 994.86 994.61 995.20 994.01 996.08 996.55 996.23 996.49 998.22 999.47 997.00 996.05 996.47 997.29 997.35 997.93 998.13 998.35 998.91 999.22 999.66 999.80 999.96 999.91
1002.53 1002.20 1001.50 1000.62 1000.12 999.95 999.63 999.12 998.44 997.56 997.05 996.74 996.26 995.80 995.53 995.51 995.27 995.57 996.29 996.67 996.31 995.93 995.91 996.20 996.93 997.95 998.77 999.13 999.78 997.93 997.00 996.92 998.15 998.26 997.99 997.65 998.36 999.52 999.62 999.55 999.73 999.99 1000.07 1000.75
Wind_Speed
10 11 8 5 19 18 24 19 8 6 8 7 9 11 11 9 9 11 11 12 12 12 10 8 7 6 5 6 6 6 6 5 5 4 4 3 4 4 4 4 5 5 8 8
6 12 8 10 8 20 22 16 15 6 9 8 4 6 6 12 13 12 13 13 13 12 11 11 11 9 7 7 7 6 6 6 5 5 5 4 3 5 4 5 4 5 6 8
5 10 8 9 20 9 13 18 13 12 16 5 4 7 9 10 14 16 15 16 16 16 14 12 12 11 9 8 6 7 6 6 6 5 5 4 4 5 4 4 4 5 5 6
4 5 6 6 7 15 13 7 13 7 7 9 10 12 9 12 16 14 15 14 14 13 11 11 10 11 7 7 9 8 6 6 6 5 6 5 4 4 4 3 4 3 4 5
2 3 7 6 8 7 3 10 8 12 12 8 6 5 4 9 9 19 21 18 16 15 14 10 13 11 10 7 8 8 8 7 6 6 7 7 6 5 2 4 3 3 3 5
1 2 5 1 12 11 7 6 11 11 9 7 7 6 8 11 9 10 10 12 13 13 10 13 11 12 12 9 10 10 9 9 7 7 8 7 6 6 3 2 4 4 5 4
6 3 7 10 19 10 8 5 17 13 12 11 6 10 14 12 12 14 16 16 14 14 15 15 13 14 12 11 12 12 9 8 7 7 7 7 6 4 5 5 5 5 6 3
3 4 6 13 7 9 7 8 10 12 10 13 15 13 5 13 14 14 16 15 15 14 13 12 14 15 13 14 11 9 11 10 9 7 6 6 7 4 5 6 6 5 5 4
3 3 4 8 5 6 4 10 10 14 15 14 16 13 9 9 10 15 18 17 17 16 13 13 15 15 15 13 11 11 11 10 10 9 7 7 8 7 4 4 5 4 4 4
2 2 12 15 8 6 11 14 16 14 16 14 15 14 12 6 9 12 13 15 15 16 16 15 16 16 14 14 14 13 11 10 9 10 7 6 4 6 6 5 4 5 4 4
5 6 13 2 12 14 19 19 19 19 16 14 11 15 12 8 8 13 14 13 16 16 15 17 16 15 12 15 15 13 11 9 9 8 10 8 6 6 7 6 8 7 5 6
3 6 6 10 13 18 17 19 20 17 18 16 9 12 8 8 10 10 14 13 14 15 13 14 16 15 15 17 17 15 12 9 9 8 7 8 8 4 7 3 10 9 12 9
3 6 10 15 16 11 15 18 20 20 15 14 14 8 4 6 7 11 10 16 17 19 18 17 16 16 15 17 17 16 15 12 8 9 9 9 8 8 8 1 4 9 9 10
10 9 8 4 13 20 19 18 17 16 11 10 9 8 6 3 6 10 13 18 16 15 15 16 17 18 17 17 17 16 13 15 11 10 9 9 9 9 8 8 8 5 7 8
4 6 9 11 14 19 16 15 15 14 13 13 10 9 9 7 2 11 9 7 7 10 13 16 16 15 16 18 17 16 13 11 11 10 9 9 9 8 8 8 8 6 3 2
14 13 14 15 11 20 14 16 12 12 13 11 12 11 11 9 6 3 8 13 13 14 15 15 16 16 17 18 17 13 13 15 13 10 9 9 8 9 8 8 8 8 7 9
11 12 10 8 9 16 15 13 14 10 11 10 10 9 9 9 7 6 5 7 12 10 13 17 17 16 18 18 19 13 12 11 12 10 10 11 10 10 9 9 9 9 10 9
16 14 12 14 14 13 18 15 14 13 8 11 9 7 6 7 6 7 5 4 6 7 9 8 9 11 15 16 15 11 12 12 12 12 10 11 11 10 10 10 10 10 9 7
15 15 13 13 14 14 16 16 15 12 7 10 8 5 5 5 6 5 6 5 6 6 4 8 14 14 13 15 16 11 11 12 12 11 11 10 8 10 10 11 11 10 9 7
8 11 12 15 15 15 16 14 14 9 10 8 7 4 4 5 6 5 4 5 5 2 2 4 10 14 14 12 13 11 12 13 14 12 10 10 11 11 11 11 11 10 10 10
9 9 11 11 13 15 13 12 9 8 9 6 6 4 1 5 4 4 4 2 4 6 5 8 3 2 6 10 11 8 10 11 11 12 12 12 11 11 11 11 11 10 10 10
8 6 10 9 9 9 9 10 9 8 6 6 6 5 3 4 5 4 2 1 3 6 3 3 8 9 8 1 12 8 9 11 9 8 9 10 10 11 11 10 10 10 10 10
9 3 6 9 7 6 8 11 10 8 7 6 7 5 3 3 2 2 3 5 2 1 3 3 11 19 16 6 7 8 11 11 10 10 9 9 10 10 10 11 11 9 9 9
15 9 7 8 8 7 7 7 8 7 7 6 6 5 4 3 1 2 3 7 3 5 5 6 8 13 13 4 7 8 9 9 9 8 7 9 8 7 7 7 8 8 8 7
16 12 10 11 9 7 11 10 10 7 6 6 5 4 6 4 2 4 2 3 6 7 8 13 14 10 9 3 9 9 7 5 5 5 4 4 5 5 4 4 5 6 5 6
12 10 9 10 8 7 7 7 8 6 5 5 4 3 4 2 2 2 4 2 4 7 5 10 10 10 8 7 2 9 1 6 8 5 6 5 5 5 3 3 2 0 1 3
7 7 7 8 9 9 8 6 4 5 5 6 7 4 4 3 3 3 2 1 2 6 7 8 7 6 2 3 9 2 6 8 7 6 6 7 7 5 5 5 5 4 5 3
Wind_Direction
276 272 307 325 202 200 210 214 182 185 205 243 236 210 198 148 127 143 160 169 174 173 172 169 168 176 179 169 166 155 155 148 163 154 131 123 96 89 86 99 105 108 117 114
302 288 269 270 254 217 210 218 223 186 250 210 279 98 156 162 156 170 178 180 177 177 172 173 178 182 180 168 168 156 162 158 155 136 134 128 106 97 90 88 96 110 115 123
293 341 312 254 237 226 224 214 183 193 222 164 199 205 194 168 176 179 182 181 181 180 180 177 180 173 185 172 149 162 165 155 156 147 135 140 126 94 88 89 110 105 113 112
269 318 208 251 188 197 212 228 231 249 183 192 210 220 192 189 181 173 178 185 180 176 177 179 174 170 164 146 162 163 169 157 154 148 135 128 115 105 102 85 101 114 113 115
225 265 288 316 45 2 154 241 188 206 233 230 219 78 276 212 182 183 182 184 180 172 174 160 166 164 158 152 157 160 172 166 163 153 145 142 135 127 91 104 95 102 107 118
269 229 229 277 323 314 253 218 8 349 301 190 144 159 235 187 179 165 163 167 166 161 156 161 168 157 157 168 161 176 177 177 163 158 152 154 150 140 117 98 102 110 98 88
225 274 286 343 321 310 138 289 328 328 317 300 205 202 212 174 186 176 170 164 153 158 165 172 160 158 167 168 185 185 167 157 154 159 158 155 144 136 130 113 101 93 96 74
197 237 273 359 13 54 272 297 307 309 307 296 293 290 204 181 180 152 157 151 163 161 169 160 162 165 167 182 188 155 157 160 161 156 158 147 143 121 125 126 116 114 111 90
255 286 329 326 299 271 275 303 307 308 303 294 285 274 256 192 161 170 169 169 169 167 159 160 168 176 175 184 156 155 159 164 163 155 154 154 148 141 128 135 136 142 137 126
268 28 324 307 313 303 323 322 313 310 302 294 278 271 251 237 163 168 170 166 166 158 168 171 175 180 185 160 161 160 167 166 157 160 150 152 149 157 149 155 151 153 155 154
274 309 319 197 339 330 322 321 324 325 318 302 287 266 226 202 188 173 170 158 165 171 176 177 173 177 160 159 158 164 168 164 165 165 165 163 170 172 176 187 175 172 184 169
267 260 275 283 307 321 320 319 323 322 318 321 304 289 210 200 178 174 167 163 169 173 169 168 173 173 163 162 164 160 164 167 172 164 170 168 165 147 47 186 195 195 165 167
235 251 267 284 296 315 325 317 316 319 312 313 315 307 296 189 186 164 184 169 170 177 175 166 172 174 170 167 165 169 169 171 168 169 172 170 174 177 181 59 171 197 199 196
273 294 302 318 307 318 324 321 313 312 301 310 303 316 334 253 156 152 173 190 179 168 168 169 172 179 172 170 169 170 170 164 168 177 180 178 182 188 189 186 192 192 217 203
323 309 278 295 307 304 308 317 312 322 324 335 330 354 358 354 243 181 160 148 153 167 169 168 173 179 173 170 171 170 167 171 173 174 180 179 179 182 189 191 196 190 145 188
296 301 300 287 285 285 297 314 306 318 334 333 334 353 348 339 323 215 149 145 151 177 175 180 180 178 173 173 173 170 178 170 170 171 170 174 179 185 187 193 193 195 195 207
261 276 283 266 271 280 298 303 306 304 329 323 319 331 343 342 338 10 52 185 177 179 184 176 187 170 174 178 173 176 174 167 169 170 177 182 183 190 193 195 201 202 211 196
258 251 251 261 272 287 289 292 298 304 313 302 305 320 350 344 348 325 342 109 135 146 176 178 148 166 173 175 179 175 172 169 173 183 181 184 190 188 190 196 203 207 215 199
264 249 250 259 258 259 266 276 288 302 291 294 293 317 321 323 321 316 331 82 112 163 208 170 161 156 175 185 172 167 169 170 179 185 189 182 178 191 194 198 203 206 207 196
293 253 249 248 254 252 259 265 275 286 285 271 271 288 314 339 337 341 343 27 52 40 329 276 179 172 171 166 187 174 172 175 181 184 184 184 189 194 199 203 205 204 198 197
296 295 289 290 279 265 246 252 262 267 288 260 265 243 318 340 336 337 51 339 23 10 311 101 4 168 156 151 173 186 184 176 182 183 184 190 190 195 198 198 198 204 212 208
283 273 281 279 285 300 272 247 234 240 255 272 275 293 302 12 4 38 359 56 306 337 4 332 110 62 26 143 185 174 183 175 182 184 184 189 189 192 198 198 201 205 210 212
358 328 282 287 283 273 290 292 238 210 221 244 254 276 317 306 356 60 334 335 285 332 86 32 295 98 59 18 277 201 188 177 175 191 192 190 199 200 198 198 201 199 206 208
3 354 349 329 307 312 304 329 282 225 219 227 221 212 176 234 204 162 184 255 287 55 67 36 352 360 91 34 331 255 208 176 168 182 180 179 189 200 197 190 197 197 197 193
8 1 6 8 6 350 333 328 317 306 310 304 294 262 218 190 179 277 155 109 11 25 40 32 16 19 45 72 323 321 248 126 155 146 160 180 171 184 204 200 195 198 199 195
5 359 355 7 10 2 345 325 305 300 305 297 289 267 284 263 69 6 312 83 100 84 29 76 30 358 6 30 339 238 117 89 83 96 100 102 109 88 97 90 68 355 261 190
343 353 -0 11 10 3 344 321 320 328 327 312 285 268 240 215 181 135 141 32 98 118 114 93 98 66 59 196 238 153 88 77 62 86 90 83 81 86 81 86 84 89 100 80